[[{"header":{"parameterUnit":"m.s-1","parameterCategory":1,"la1":30.2991,"la2":30.254,"lo1":-89.0895,"lo2":-89.0444,"dy":0.0017,"dx":0.0017,"nx":28,"ny":28,"refTime":"2025-05-20T21:00:00:Z","depth":0,"parameterNumber":2,"parameterNumberName":"U-component_of_WINDS"},"data":[0,0,0,0,0,0,0,0,0,0,0,0,0,0,0,0,0,0,0,0,0,0,0,0,0,0,0,0,0,0,0,0,0,0,0,0,0,0,0,0,0,0,0,0,0,0,0,0,0,0,0,0,0,0,0,0,0,0,1.6116,1.6117,0,1.6287,1.6289,1.6291,1.6332,1.6331,1.633,1.6329,1.6509,1.6515,1.6521,0,0,0,0,0,0,0,0,0,0,0,0,0,1.5829,1.5834,1.6115,1.6118,1.612,1.6287,1.6289,1.6292,1.6332,1.6331,1.633,1.6328,1.6507,1.6514,1.6521,0,0,0,0,0,0,0,0,0,0,0,0,0,1.5973,1.5836,1.6115,1.616,1.6166,1.6286,1.6289,1.6292,1.6333,1.6331,1.6329,1.6328,1.6505,1.6513,1.6522,1.6611,0,0,1.6549,1.6553,0,0,0,0,0,0,0,0,1.5964,1.5983,1.6151,1.6157,1.6164,1.6286,1.6255,1.6399,1.6333,1.627,1.6329,1.6327,1.6437,1.6451,1.6487,1.662,1.6628,1.655,1.6555,1.6559,1.6562,0,0,0,0,0,0,0,1.5954,1.5976,1.6184,1.6154,1.6162,1.6174,1.6192,1.6282,1.6361,1.6275,1.6278,1.6298,1.644,1.6479,1.6492,1.663,1.655,1.6557,1.6563,1.6566,1.6849,1.6851,0,0,0,0,0,0,1.5936,1.5967,1.6178,1.6189,1.6058,1.618,1.6201,1.6249,1.636,1.6375,1.6299,1.6299,1.6464,1.6481,1.6498,1.6613,1.6559,1.6567,1.6572,1.6847,1.685,1.6852,0,0,0,0,0,0,1.593,1.5954,1.6171,1.6079,1.6108,1.6187,1.6241,1.6253,1.6292,1.6378,1.6393,1.6324,1.6464,1.6486,1.6584,1.662,1.6571,1.6579,1.6844,1.6848,1.6851,1.6841,0,0,0,0,0,0,1.5921,1.5952,1.5985,1.6079,1.6112,1.6252,1.6243,1.6258,1.6307,1.6308,1.6405,1.642,1.6464,1.657,1.6592,1.6631,1.6586,1.6842,1.6846,1.685,1.6838,1.6843,1.6848,0,0,0,0,0,1.5911,1.5975,1.5986,1.6011,1.6155,1.6253,1.6273,1.6321,1.6309,1.6345,1.6401,1.6417,1.6612,1.658,1.6605,1.6647,1.6839,1.6845,1.6849,1.6836,1.6842,1.6848,0,0,0,0,0,0,1.5884,1.5988,1.6002,1.6098,1.6167,1.626,1.6306,1.6325,1.6399,1.6398,1.6456,1.6478,1.6572,1.6619,1.6582,1.6741,1.6726,1.6736,1.6707,1.6714,1.6718,1.6706,1.6593,0,0,0,0,0,1.5889,1.5958,1.6047,1.6123,1.6157,1.6225,1.627,1.6301,1.6375,1.6405,1.6468,1.654,1.6618,1.6668,1.6744,1.6845,1.6869,1.6887,1.6891,1.6895,1.6903,1.6964,1.6974,1.6868,1.6868,1.6868,0,0,1.59,1.5966,1.6006,1.612,1.6176,1.6249,1.625,1.6326,1.6382,1.6417,1.6513,1.6562,1.6647,1.6748,1.6795,1.679,1.6938,1.6901,1.6903,1.691,1.697,1.698,1.6989,1.6872,1.6871,1.6871,0,0,1.5959,1.6014,1.6086,1.6143,1.6228,1.6274,1.6291,1.6383,1.6416,1.6514,1.6543,1.6611,1.6743,1.6803,1.6851,1.6935,1.6955,1.6959,1.6984,1.7042,1.705,1.7058,1.7091,1.7102,1.6967,1.6967,1.6967,0,1.5963,1.6072,1.612,1.6197,1.6247,1.6281,1.6356,1.641,1.6516,1.6551,1.6543,1.6712,1.6772,1.6888,1.6909,1.6946,1.697,1.6948,1.7045,1.7053,1.7061,1.7093,1.7105,1.6967,1.6967,1.6967,1.6967,0,1.6074,1.615,1.6198,1.6299,1.6355,1.643,1.6492,1.6543,1.6571,1.6618,1.6719,1.6791,1.6884,1.6914,1.6941,1.7036,1.703,1.7033,1.7019,1.707,1.7102,1.7114,1.6967,1.6967,1.6967,1.6967,0,0,1.612,1.6249,1.6266,1.6314,1.6412,1.6472,1.655,1.664,1.6684,1.6757,1.6826,1.6938,1.6942,1.6997,1.7031,1.7082,1.7148,1.7079,1.7082,1.7092,1.7261,1.726,1.7273,1.7161,1.7163,1.7165,1.7255,0,1.6192,1.6331,1.6378,1.6494,1.6567,1.6602,1.667,1.6739,1.6786,1.6856,1.6908,1.6988,1.6985,1.7019,1.7071,1.7129,1.7183,1.7123,1.7229,1.7232,1.7208,1.7289,1.7287,1.7368,1.7267,1.7269,1.727,0,1.6295,1.637,1.6492,1.6584,1.6616,1.6677,1.6765,1.683,1.6911,1.6942,1.7003,1.7035,1.7121,1.7101,1.7222,1.718,1.7226,1.7262,1.7266,1.7279,1.7255,1.7306,1.7394,1.7407,1.729,1.7288,1.7287,0,1.6319,1.645,1.6541,1.6581,1.669,1.6732,1.6779,1.6858,1.691,1.6988,1.7023,1.711,1.7158,1.7226,1.7281,1.7261,1.7398,1.7382,1.7429,1.7428,1.7457,1.7455,1.7556,1.7483,1.7483,1.7483,1.7483,0,1.6397,1.6471,1.6554,1.661,1.6696,1.6751,1.6835,1.6885,1.6955,1.7024,1.7059,1.7123,1.7191,1.7266,1.7309,1.7405,1.7426,1.7455,1.7467,1.7453,1.745,1.7486,1.7482,1.7486,1.7485,1.7485,1.7484,0,1.6438,1.6496,1.6599,1.6694,1.6719,1.6779,1.6861,1.6919,1.6967,1.7054,1.7078,1.7155,1.7244,1.7306,1.742,1.745,1.7554,1.7564,1.7527,1.7533,1.7577,1.7573,1.7706,1.7728,1.7638,1.7639,1.764,0,1.6484,1.6543,1.6644,1.6692,1.674,1.6816,1.687,1.6927,1.6982,1.7079,1.7126,1.7217,1.7294,1.7435,1.7503,1.7592,1.7605,1.7646,1.7619,1.7605,1.7609,1.7606,1.7613,1.765,1.7651,1.7651,1.7652,0,1.6561,1.6588,1.6663,1.6749,1.6812,1.6883,1.6954,1.6992,1.7062,1.7122,1.7214,1.7273,1.739,1.7482,1.7577,1.7629,1.7654,1.766,1.7676,1.7664,1.7641,1.7657,1.7541,1.7657,1.7656,1.7656,1.7656,1.7655,1.6609,1.6663,1.6744,1.6827,1.6887,1.6953,1.7013,1.7069,1.7146,1.7245,1.7275,1.737,1.7453,1.7584,1.7637,1.7715,1.7712,1.7734,1.7741,1.7746,1.7747,1.7627,1.7732,1.7732,1.7732,1.7732,1.7732,0,1.669,1.6744,1.682,1.6918,1.6985,1.7,1.7081,1.7136,1.722,1.7293,1.7368,1.7475,1.7564,1.764,1.7733,1.7781,1.7795,1.7804,1.7802,1.7814,1.7743,1.7721,1.7791,1.7791,1.7791,1.7791,1.7791,1.7791,1.674,1.6834,1.687,1.6996,1.705,1.7143,1.7188,1.7251,1.731,1.7427,1.7502,1.755,1.7626,1.7725,1.7809,1.783,1.7864,1.7871,1.7894,1.7826,1.7819,1.7813,1.7792,1.7877,1.7877,1.7959,1.796,1.7961]},{"header":{"parameterUnit":"m.s-1","parameterCategory":1,"la1":30.2991,"la2":30.254,"lo1":-89.0895,"lo2":-89.0444,"dy":0.0017,"dx":0.0017,"nx":28,"ny":28,"refTime":"2025-05-20T21:00:00:Z","depth":0,"parameterNumber":3,"parameterNumberName":"V-component_of_WINDS"},"data":[0,0,0,0,0,0,0,0,0,0,0,0,0,0,0,0,0,0,0,0,0,0,0,0,0,0,0,0,0,0,0,0,0,0,0,0,0,0,0,0,0,0,0,0,0,0,0,0,0,0,0,0,0,0,0,0,0,0,-2.8045,-2.8044,0,-2.7934,-2.7933,-2.7931,-2.7913,-2.7914,-2.7915,-2.7916,-2.7794,-2.779,-2.7786,0,0,0,0,0,0,0,0,0,0,0,0,0,-2.8237,-2.8233,-2.8046,-2.8044,-2.8043,-2.7934,-2.7933,-2.7931,-2.7913,-2.7914,-2.7916,-2.7917,-2.7795,-2.779,-2.7785,0,0,0,0,0,0,0,0,0,0,0,0,0,-2.8142,-2.8232,-2.8046,-2.8021,-2.8018,-2.7934,-2.7933,-2.7931,-2.7913,-2.7914,-2.7916,-2.7917,-2.7797,-2.7791,-2.7785,-2.7716,0,0,-2.7766,-2.7763,0,0,0,0,0,0,0,0,-2.8148,-2.8135,-2.8026,-2.8022,-2.8019,-2.7939,-2.7955,-2.7858,-2.7912,-2.7952,-2.7916,-2.7918,-2.7841,-2.7831,-2.7806,-2.771,-2.7705,-2.7765,-2.7761,-2.7759,-2.7757,0,0,0,0,0,0,0,-2.8154,-2.814,-2.8001,-2.8024,-2.802,-2.8013,-2.8001,-2.7937,-2.7889,-2.7949,-2.7947,-2.7935,-2.7839,-2.7812,-2.7803,-2.7703,-2.7765,-2.776,-2.7756,-2.7753,-2.7546,-2.7545,0,0,0,0,0,0,-2.8166,-2.8145,-2.8005,-2.7998,-2.8088,-2.8009,-2.7995,-2.7963,-2.789,-2.788,-2.7934,-2.7934,-2.7822,-2.7811,-2.7799,-2.7714,-2.7759,-2.7753,-2.7749,-2.7548,-2.7546,-2.7544,0,0,0,0,0,0,-2.817,-2.8154,-2.8009,-2.8071,-2.8052,-2.8004,-2.7967,-2.796,-2.7934,-2.7879,-2.7869,-2.7916,-2.7823,-2.7808,-2.7738,-2.771,-2.775,-2.7744,-2.755,-2.7547,-2.7545,-2.7544,0,0,0,0,0,0,-2.8176,-2.8155,-2.813,-2.8071,-2.8049,-2.7951,-2.7966,-2.7957,-2.7924,-2.7924,-2.7859,-2.785,-2.7823,-2.7747,-2.7731,-2.7702,-2.7739,-2.7552,-2.7549,-2.7546,-2.7546,-2.7542,-2.7538,0,0,0,0,0,-2.8183,-2.8132,-2.8129,-2.8112,-2.8017,-2.795,-2.7937,-2.791,-2.7922,-2.7895,-2.786,-2.7852,-2.7716,-2.774,-2.7722,-2.769,-2.7554,-2.755,-2.7546,-2.7548,-2.7543,-2.7538,0,0,0,0,0,0,-2.8186,-2.8124,-2.8119,-2.8049,-2.8005,-2.7947,-2.7912,-2.7904,-2.7854,-2.7856,-2.7821,-2.7807,-2.7739,-2.7707,-2.7736,-2.7621,-2.7636,-2.7628,-2.7643,-2.7638,-2.7633,-2.7642,-2.7734,0,0,0,0,0,-2.8179,-2.8133,-2.808,-2.8022,-2.8001,-2.7961,-2.793,-2.7914,-2.7866,-2.7846,-2.7806,-2.7758,-2.7704,-2.7669,-2.7617,-2.7543,-2.7528,-2.7512,-2.7508,-2.7504,-2.7498,-2.7456,-2.7448,-2.7531,-2.7531,-2.7531,0,0,-2.8163,-2.8124,-2.8095,-2.8022,-2.7986,-2.7937,-2.7945,-2.7892,-2.7854,-2.7837,-2.7769,-2.7738,-2.7682,-2.761,-2.7576,-2.7582,-2.7472,-2.7499,-2.7497,-2.7492,-2.7451,-2.7444,-2.7437,-2.7529,-2.7529,-2.753,0,0,-2.8109,-2.8075,-2.8024,-2.7989,-2.7936,-2.791,-2.7898,-2.7841,-2.7821,-2.7753,-2.7739,-2.7693,-2.7602,-2.7563,-2.7531,-2.7465,-2.7455,-2.7448,-2.7425,-2.7386,-2.7379,-2.7373,-2.7349,-2.7341,-2.7442,-2.7442,-2.7442,0,-2.8095,-2.8022,-2.7997,-2.7946,-2.7914,-2.79,-2.7847,-2.7813,-2.7745,-2.7722,-2.773,-2.7617,-2.7578,-2.7496,-2.7481,-2.7456,-2.744,-2.7455,-2.7383,-2.7376,-2.737,-2.7347,-2.7338,-2.7442,-2.7442,-2.7442,-2.7442,0,-2.8007,-2.7957,-2.7922,-2.786,-2.7823,-2.7771,-2.7737,-2.7704,-2.769,-2.7663,-2.7594,-2.7548,-2.7486,-2.7466,-2.7451,-2.7383,-2.7388,-2.739,-2.7404,-2.7362,-2.734,-2.7331,-2.7441,-2.7441,-2.7441,-2.7441,0,0,-2.7949,-2.7877,-2.7864,-2.7836,-2.7778,-2.7737,-2.7685,-2.7628,-2.7599,-2.7553,-2.7506,-2.7431,-2.7433,-2.7397,-2.7378,-2.7343,-2.7294,-2.7349,-2.7347,-2.734,-2.7215,-2.7213,-2.7204,-2.7288,-2.7286,-2.7285,-2.722,0,-2.7887,-2.7796,-2.7773,-2.7694,-2.7647,-2.7634,-2.7588,-2.7546,-2.752,-2.7474,-2.7444,-2.7391,-2.7398,-2.7377,-2.7342,-2.7307,-2.7268,-2.7312,-2.7243,-2.7241,-2.7256,-2.7192,-2.7189,-2.713,-2.7211,-2.7209,-2.7208,0,-2.7802,-2.7758,-2.7675,-2.7625,-2.7604,-2.7563,-2.751,-2.7467,-2.7419,-2.7403,-2.7364,-2.7349,-2.7292,-2.7311,-2.7231,-2.7262,-2.7232,-2.7211,-2.7208,-2.7199,-2.7221,-2.718,-2.711,-2.7101,-2.7194,-2.7195,-2.7196,0,-2.7768,-2.7687,-2.7627,-2.7604,-2.7543,-2.7515,-2.7488,-2.7443,-2.741,-2.7363,-2.7341,-2.7287,-2.7257,-2.7214,-2.7184,-2.7201,-2.7107,-2.7123,-2.709,-2.7091,-2.7069,-2.707,-2.6992,-2.7052,-2.7052,-2.7053,-2.7053,0,-2.7701,-2.765,-2.7611,-2.7574,-2.7517,-2.7492,-2.7435,-2.7407,-2.7367,-2.7323,-2.7309,-2.7267,-2.7231,-2.7184,-2.716,-2.7098,-2.7084,-2.7068,-2.7062,-2.7068,-2.707,-2.7047,-2.705,-2.705,-2.7051,-2.7051,-2.7052,0,-2.7652,-2.7624,-2.7558,-2.7508,-2.7494,-2.7454,-2.741,-2.7373,-2.7347,-2.7292,-2.7277,-2.7236,-2.7181,-2.7148,-2.7076,-2.706,-2.6991,-2.6987,-2.7008,-2.7005,-2.6973,-2.6976,-2.6876,-2.6862,-2.6933,-2.6932,-2.6931,0,-2.761,-2.7571,-2.7518,-2.7489,-2.7463,-2.7416,-2.7384,-2.7358,-2.7325,-2.7269,-2.7238,-2.7183,-2.7137,-2.7048,-2.701,-2.6956,-2.695,-2.6919,-2.6941,-2.695,-2.6949,-2.6951,-2.6947,-2.6914,-2.6914,-2.6913,-2.6913,0,-2.7539,-2.7528,-2.7484,-2.7435,-2.7398,-2.7358,-2.7317,-2.7294,-2.726,-2.7224,-2.7169,-2.7134,-2.7063,-2.7007,-2.695,-2.692,-2.691,-2.6907,-2.6896,-2.6902,-2.6915,-2.6907,-2.6996,-2.6908,-2.6909,-2.6909,-2.6909,-2.691,-2.7491,-2.7457,-2.7415,-2.7366,-2.7334,-2.7298,-2.7261,-2.7232,-2.7187,-2.7129,-2.7116,-2.7058,-2.7012,-2.6935,-2.6904,-2.6857,-2.6861,-2.6846,-2.6842,-2.6838,-2.6837,-2.6925,-2.6846,-2.6846,-2.6846,-2.6846,-2.6846,0,-2.7419,-2.7392,-2.7348,-2.7294,-2.7256,-2.7254,-2.721,-2.7177,-2.7127,-2.7087,-2.7043,-2.698,-2.6926,-2.6886,-2.6831,-2.6801,-2.6795,-2.6787,-2.6788,-2.6782,-2.6836,-2.6851,-2.6793,-2.6793,-2.6793,-2.6793,-2.6793,-2.6793,-2.7376,-2.7318,-2.7303,-2.7228,-2.7201,-2.7147,-2.7122,-2.7087,-2.7055,-2.6986,-2.6943,-2.6919,-2.6877,-2.682,-2.6771,-2.676,-2.674,-2.6733,-2.6721,-2.6772,-2.6778,-2.6783,-2.6797,-2.6729,-2.6729,-2.667,-2.667,-2.6669]}]]